Doha, Qatar

7:16 PM AST on September 28, 2016 (GMT +0300)
Doha International

Weather History for OTBD - April, 2013

Change the Weather History Date:

Thursday, April 11, 2013

  Actual Average Record
Temperature  
Mean Temperature 80 °F -  
Max Temperature 87 °F 87 °F 104 °F (2003)
Min Temperature 73 °F 69 °F 64 °F (1997)
Cooling Degree Days 15    
Growing Degree Days 30 (Base 50)    
Moisture  
Dew Point 63 °F    
Average Humidity 57    
Maximum Humidity 73    
Minimum Humidity 31    
Precipitation  
Precipitation 0.00 in - - ()
Sea Level Pressure  
Sea Level Pressure 29.83 in    
Wind  
Wind Speed 6 mph ()    
Max Wind Speed 14 mph    
Max Gust Speed -    
Visibility 7.0 miles    
Events      
Averages and records for this station are not official NWS values.
T = Trace of Precipitation, MM = Missing Value Source: Averaged Metar Reports

Daily Weather History Graph

Daily Weather History Graph

Search for Another Location

Airport or City:

Trip Planner

Search our weather history database for the weather conditions in past years. The results will help you decide how hot, cold, wet, or windy it might be!

Date:

Astronomy

Apr. 11, 2013 Rise Set
Actual Time 5:15 AM AST 5:54 PM AST
Civil Twilight 4:51 AM AST 6:17 PM AST
Nautical Twilight 4:24 AM AST 6:45 PM AST
Astronomical Twilight 3:56 AM AST 7:13 PM AST
Moon 5:39 AM AST (4/11) 6:56 PM AST (4/11)
Length of Visible Light 13h 25m
Length of Day
12h 39m
New Moon, 1% of the Moon is Illuminated
Apr 11
New Moon
Apr 18
First Quarter
Apr 25
Full
May 2
Last Quarter
May 10
New

Hourly Weather History & Observations

Time (AST) Temp. Heat Index Dew Point Humidity Pressure Visibility Wind Dir Wind Speed Gust Speed Precip Events Conditions
12:00 AM 77.0 °F - 64.4 °F 65% 29.80 in - ESE 9.2 mph - N/A   Clear
1:00 AM 77.0 °F - 64.4 °F 65% 29.77 in - ESE 5.8 mph - N/A   Clear
1:30 AM 77.0 °F - 64.4 °F 65% 29.77 in - ESE 5.8 mph - N/A   Clear
2:00 AM 77.0 °F - 64.4 °F 65% 29.77 in - ESE 6.9 mph - N/A   Clear
2:30 AM 78.8 °F - 62.6 °F 57% 29.77 in - ESE 8.1 mph - N/A   Clear
3:00 AM 77 °F - 64 °F 56% 29.79 in 9 mi SE 6.9 mph - -  
3:00 AM 77.0 °F - 64.4 °F 65% 29.77 in - SE 6.9 mph - N/A   Clear
3:30 AM 75.2 °F - 64.4 °F 69% 29.77 in - SE 3.5 mph - N/A   Clear
4:00 AM 75.2 °F - 64.4 °F 69% 29.80 in - SE 3.5 mph - N/A   Clear
4:30 AM 75.2 °F - 64.4 °F 69% 29.80 in - Variable 2.3 mph - N/A   Clear
5:00 AM 75.2 °F - 64.4 °F 69% 29.80 in - Variable 2.3 mph - N/A   Clear
5:30 AM 75.2 °F - 66.2 °F 73% 29.83 in - Variable 2.3 mph - N/A   Clear
6:00 AM 75.2 °F - 66.2 °F 73% 29.83 in - Variable 2.3 mph - N/A   Clear
6:30 AM 77.0 °F - 66.2 °F 69% 29.83 in - ESE 3.5 mph - N/A   Clear
7:00 AM 78.8 °F - 66.2 °F 65% 29.86 in - ESE 8.1 mph - N/A   Clear
8:00 AM 82.4 °F 83.9 °F 64.4 °F 54% 29.86 in - SE 9.2 mph - N/A   Clear
9:00 AM 85 °F - 59 °F 31% 29.90 in 7 mi East 5.8 mph - -   Clear
9:00 AM 84.2 °F 83.8 °F 59.0 °F 42% 29.89 in - East 5.8 mph - N/A   Clear
10:00 AM 86.0 °F 84.9 °F 57.2 °F 37% 29.89 in - ESE 6.9 mph - N/A   Clear
10:30 AM 86.0 °F 84.9 °F 57.2 °F 37% 29.89 in - NE 8.1 mph - N/A   Clear
11:00 AM 86.0 °F 87.3 °F 64.4 °F 48% 29.89 in - NNE 9.2 mph - N/A   Clear
12:00 PM 86.0 °F 87.3 °F 64.4 °F 48% 29.86 in - North 11.5 mph - N/A   Clear
1:00 PM 86.0 °F 86.6 °F 62.6 °F 45% 29.86 in - NNE 8.1 mph - N/A   Clear
2:00 PM 87.8 °F 87.6 °F 60.8 °F 40% 29.83 in - NNE 13.8 mph - N/A   Clear
2:30 PM 84.2 °F 84.4 °F 60.8 °F 45% 29.83 in - NNE 10.4 mph - N/A   Clear
3:00 PM 84 °F - 60 °F 34% 29.85 in 6 mi NE 10.4 mph - -  
3:00 PM 84.2 °F 84.4 °F 60.8 °F 45% 29.83 in - NE 10.4 mph - N/A   Clear
3:30 PM 82.4 °F 82.9 °F 60.8 °F 48% 29.83 in - NE 10.4 mph - N/A   Clear
4:00 PM 82.4 °F 82.9 °F 60.8 °F 48% 29.83 in - NE 11.5 mph - N/A   Clear
4:30 PM 80.6 °F 81.8 °F 62.6 °F 54% 29.83 in - NE 11.5 mph - N/A   Clear
5:00 PM 80.6 °F 82.3 °F 64.4 °F 58% 29.83 in - NE 11.5 mph - N/A   Clear
5:30 PM 78.8 °F - 64.4 °F 61% 29.83 in - NE 10.4 mph - N/A   Clear
6:00 PM 78.8 °F - 66.2 °F 65% 29.83 in - NE 9.2 mph - N/A   Clear
6:30 PM 78.8 °F - 64.4 °F 61% 29.83 in - NE 8.1 mph - N/A   Clear
7:00 PM 77.0 °F - 64.4 °F 65% 29.83 in - NNE 5.8 mph - N/A   Clear
7:30 PM 77.0 °F - 62.6 °F 61% 29.83 in - NNE 5.8 mph - N/A   Clear
8:00 PM 77.0 °F - 62.6 °F 61% 29.86 in - NNE 6.9 mph - N/A   Clear
8:30 PM 77.0 °F - 62.6 °F 61% 29.86 in - NNE 4.6 mph - N/A   Clear
9:00 PM 77 °F - 62 °F 51% 29.87 in 6 mi North 4.6 mph - -  
9:00 PM 77.0 °F - 62.6 °F 61% 29.86 in - North 4.6 mph - N/A   Clear
9:30 PM 77.0 °F - 62.6 °F 61% 29.86 in - NNE 4.6 mph - N/A   Clear
10:00 PM 77.0 °F - 62.6 °F 61% 29.86 in - North 5.8 mph - N/A   Clear
11:00 PM 77.0 °F - 62.6 °F 61% 29.86 in - North 8.1 mph - N/A   Clear